Location: Newark
(21.1700°N, 79.6500°E)
Time: 23:24:17
(UTC+00:00)

N. Korean satellite - Pass Details

Date: 14 December 2019
Orbit: 454 x 507 km, 97.2° (Epoch: 23 January)

Event Time Altitude Azimuth Distance (km) Brightness Sun altitude
Rises 23:49:55 0° 26° (NNE) 2,484 10.3 -18.3°
Reaches altitude 10° 23:52:11 10° 39° (NE) 1,600 9.4 -17.8°
Maximum altitude 23:55:08 27° 98° (E) 917 8.8 -17.2°
Drops below altitude 10° 23:58:03 10° 158° (SSE) 1,584 9.7 -16.5°
Sets 00:00:16 0° 171° (S) 2,452 10.5 -16.0°
